Location: Casteau
(50.5142°N, 4.0161°E)
Time: 00:50:03
(UTC+00:00)

S-56A Canister/Altair - Pass Details

Date: 06 August 2021
Orbit: 632 x 2500 km, 38.9° (Epoch: 16 September)

Event Time Altitude Azimuth Distance (km) Brightness Sun altitude
Rises 10:22:41 0° 172° (S) 4,723 12.1 51.8°
Reaches altitude 10° 10:28:38 10° 144° (SE) 4,201 12.1 52.3°
Maximum altitude 10:32:19 12° 125° (SE) 4,282 12.1 52.7°
Drops below altitude 10° 10:36:19 10° 106° (ESE) 4,684 12.1 53.0°
Sets 10:44:04 0° 82° (E) 6,023 12.2 53.6°
